TimeEDT,TemperatureF,Dew PointF,Humidity,Sea Level PressureIn,VisibilityMPH,Wind Direction,Wind SpeedMPH,Gust SpeedMPH,PrecipitationIn,Events,Conditions,WindDirDegrees,DateUTC
12:54 AM,75.0,68.0,79,29.68,10.0,WSW,5.8,-,N/A,,Clear,240,2013-07-24 04:54:00
1:54 AM,75.0,66.9,76,29.68,10.0,West,4.6,-,N/A,,Clear,280,2013-07-24 05:54:00
2:54 AM,75.0,64.9,71,29.67,10.0,WNW,5.8,-,N/A,,Clear,290,2013-07-24 06:54:00
3:54 AM,73.9,64.9,73,29.66,10.0,WNW,5.8,-,N/A,,Clear,290,2013-07-24 07:54:00
4:54 AM,73.0,64.9,76,29.67,10.0,West,4.6,-,N/A,,Clear,280,2013-07-24 08:54:00
5:54 AM,72.0,64.9,78,29.69,9.0,West,5.8,-,N/A,,Clear,270,2013-07-24 09:54:00
6:54 AM,73.0,64.9,76,29.70,10.0,West,3.5,-,N/A,,Clear,280,2013-07-24 10:54:00
8:54 AM,79.0,64.0,60,29.74,10.0,NNW,6.9,-,N/A,,Clear,330,2013-07-24 12:54:00
9:54 AM,78.1,64.9,64,29.76,10.0,NNW,6.9,-,N/A,,Clear,340,2013-07-24 13:54:00
10:54 AM,78.1,64.9,64,29.77,-9999.0,NNW,8.1,-,N/A,,Clear,330,2013-07-24 14:54:00
11:54 AM,79.0,69.1,72,29.78,10.0,NNW,10.4,-,N/A,,Scattered Clouds,330,2013-07-24 15:54:00
12:06 PM,78.8,69.8,74,29.79,10.0,WNW,11.5,-,N/A,,Mostly Cloudy,300,2013-07-24 16:06:00
12:30 PM,78.8,71.6,78,29.80,10.0,North,9.2,-,N/A,,Scattered Clouds,350,2013-07-24 16:30:00
12:54 PM,79.0,71.1,77,29.80,10.0,WNW,9.2,-,N/A,,Partly Cloudy,300,2013-07-24 16:54:00
1:54 PM,79.0,70.0,74,29.80,10.0,NNW,11.5,16.1,N/A,,Mostly Cloudy,330,2013-07-24 17:54:00
2:01 PM,78.8,69.8,74,29.80,10.0,NNW,10.4,-,N/A,,Mostly Cloudy,330,2013-07-24 18:01:00
2:08 PM,80.6,71.6,74,29.80,10.0,NW,10.4,-,N/A,,Scattered Clouds,320,2013-07-24 18:08:00
2:54 PM,79.0,70.0,74,29.81,10.0,NNW,12.7,-,N/A,,Scattered Clouds,340,2013-07-24 18:54:00
3:54 PM,78.1,69.1,74,29.81,10.0,North,10.4,-,N/A,,Mostly Cloudy,350,2013-07-24 19:54:00
4:54 PM,80.1,73.0,79,29.81,10.0,NW,10.4,-,N/A,,Mostly Cloudy,320,2013-07-24 20:54:00
5:54 PM,78.1,71.1,79,29.82,10.0,North,11.5,-,N/A,,Scattered Clouds,360,2013-07-24 21:54:00
6:54 PM,79.0,71.1,77,29.83,10.0,North,5.8,-,N/A,,Clear,350,2013-07-24 22:54:00
7:54 PM,77.0,66.9,71,29.85,10.0,North,8.1,-,N/A,,Clear,10,2013-07-24 23:54:00
8:54 PM,73.9,63.0,68,29.88,10.0,North,17.3,-,N/A,,Overcast,10,2013-07-25 00:54:00
9:54 PM,72.0,55.0,55,29.91,10.0,North,13.8,-,N/A,,Overcast,10,2013-07-25 01:54:00
10:54 PM,68.0,54.0,61,29.94,10.0,North,9.2,-,N/A,,Clear,360,2013-07-25 02:54:00
11:54 PM,66.0,54.0,65,29.95,10.0,North,9.2,-,N/A,,Clear,10,2013-07-25 03:54:00